Aviation Digital Data Service (ADDS)

Output produced by METARs form (1239 UTC 22 February 2018)
found at http://www.aviationweather.gov/adds/metars/
 
LECO 221230Z VRB04KT CAVOK 12/01 Q1012 NOSIG
TAF LECO 220800Z 2209/2309 VRB03KT CAVOK TX13/2215Z TN00/2306Z 
     BECMG 2209/2213 04010KT 
     BECMG 2218/2222 VRB03KT
       
LEAB 221200Z 32013KT CAVOK 06/M07 Q1006 NOSIG
TAF LEAB 221100Z 2212/2221 31014KT CAVOK
       
LERI 221200Z VRB02KT 9999 FEW040 14/00 Q1006 NOSIG
TAF LERI 221100Z 2212/2221 27006KT 9999 FEW025 SCT040 
     PROB30 
     TEMPO 2215/2218 31010G20KT
       
LEAL 221230Z 30010G21KT 240V340 9999 FEW025 14/M04 Q1005 NOSIG
TAF LEAL 221100Z 2212/2312 27010KT 9999 FEW025 TX16/2213Z TN04/2306Z 
     TEMPO 2212/2218 33012KT 
     TEMPO 2218/2220 04012KT 
     BECMG 2220/2222 31008KT
       
LEAM 221230Z 22013KT 9999 FEW010 14/06 Q1007
TAF LEAM 220800Z 2209/2309 01005KT 9999 FEW020 TX14/2213Z TN06/2306Z 
     BECMG 2210/2213 21013KT 
     BECMG 2219/2221 35008KT
       
LEGA 221200Z 34006KT 270V360 9999 FEW050 10/M03 Q1007
TAF LEGA 221100Z 2212/2221 32008KT 9999 FEW040
       
LEAS 221230Z 10007KT 060V160 9999 FEW026 BKN045 08/04 Q1014 NOSIG
TAF LEAS 220800Z 2209/2309 21005KT 9999 FEW040 TX09/2214Z TN01/2306Z 
     BECMG 2210/2214 08010KT 
     BECMG 2218/2222 14005KT 
     TEMPO 2303/2309 22010KT
       
LEMD 221230Z 09004KT CAVOK 09/M06 Q1008 NOSIG
TAF LEMD 221100Z 2212/2318 02012KT CAVOK TX11/2215Z TNM05/2307Z 
     PROB40 
     TEMPO 2212/2219 02012G22KT 
     BECMG 2223/2301 03008KT 
     TEMPO 2313/2318 VRB05KT
       
LEBL 221230Z 12007KT 090V160 9999 FEW045 09/01 Q1006 NOSIG
TAF LEBL 221100Z 2212/2312 13009KT 9999 FEW025 TX11/2212Z TN04/2308Z 
     BECMG 2222/2224 34008KT 
     BECMG 2310/2312 22010KT
       
LEBB 221230Z 04008KT 300V080 9999 SCT040 09/01 Q1015 NOSIG
TAF LEBB 221100Z 2212/2312 01009KT 9999 BKN040 TX09/2214Z TN00/2307Z
       
LEBG 221230Z 02015KT 350V060 9999 BKN028 02/M04 Q1010
TAF LEBG 221100Z 2212/2221 03017KT 9999 FEW020 BKN025 
     PROB30 
     TEMPO 2212/2218 04017G27KT
       
LEBA 221230Z 13001KT CAVOK 13/M03 Q1009
TAF LEBA 221100Z 2212/2221 09007KT CAVOK
       
LEVS 221230Z VRB04KT CAVOK 09/M08 Q1008
TAF LEVS 221100Z 2212/2221 01008KT CAVOK 
     PROB40 
     TEMPO 2212/2219 02012G22KT
       
GCFV 221230Z 07007KT 050V120 9999 BKN049 18/12 Q1011
TAF AMD GCFV 220945Z 2209/2309 34010KT 9999 SCT035 TX21/2214Z TN13/2306Z 
     BECMG 2209/2212 14005KT
       
LEGT 221200Z 15003KT CAVOK 09/M07 Q1008
TAF LEGT 221100Z 2212/2221 01010KT CAVOK 
     PROB40 
     TEMPO 2212/2219 02012G22KT
       
LEGE 221230Z VRB02KT 9999 FEW045 09/M02 Q1005
TAF LEGE 221100Z 2212/2312 VRB04KT 9999 FEW030 TX11/2214Z TNM01/2306Z 
     TEMPO 2212/2218 07010KT 
     PROB30 
     TEMPO 2214/2218 4000 SHRA BKN020 FEW025TCU
       
GCLP 221230Z 09003KT 060V120 9999 FEW035 BKN055 17/11 Q1011 NOSIG
TAF GCLP 220800Z 2209/2309 11005KT 9999 BKN035 TX19/2214Z TN14/2306Z 
     PROB30 
     TEMPO 2209/2212 34010KT 
     BECMG 2219/2221 20010KT 
     PROB40 
     TEMPO 2212/2221 RA 
     TEMPO 2304/2309 RA
       
LEGR 221230Z 29010KT 260V340 9999 FEW050 12/M04 Q1007
TAF LEGR 220800Z 2209/2309 VRB02KT 9999 FEW040 SCT065 TX14/2215Z TNM02/2307Z 
     BECMG 2211/2214 29011KT 
     BECMG 2218/2221 VRB03KT
       
GCHI 221230Z 13003KT 070V170 9999 FEW030 21/12 Q1011 NOSIG
TAF GCHI 220800Z 2209/2309 34008KT 9999 BKN035 TX20/2214Z TN17/2306Z 
     BECMG 2213/2215 19010KT 
     PROB40 
     TEMPO 2209/2215 RA 
     TEMPO 2304/2309 RA
       
LEIB 221230Z 21006KT 170V250 9999 FEW022TCU SCT029 BKN036 12/05 Q1006 NOSIG
TAF LEIB 220800Z 2209/2309 02008KT 9999 SCT020 TX12/2213Z TN03/2306Z 
     TEMPO 2209/2302 VRB04KT 
     PROB40 
     TEMPO 2209/2309 04010G25KT 4000 SHRA FEW020TCU BKN030 
     BECMG 2302/2304 02009KT
       
LEAB 221200Z 32013KT CAVOK 06/M07 Q1006 NOSIG
TAF LEAB 221100Z 2212/2221 31014KT CAVOK
       
LEAL 221230Z 30010G21KT 240V340 9999 FEW025 14/M04 Q1005 NOSIG
TAF LEAL 221100Z 2212/2312 27010KT 9999 FEW025 TX16/2213Z TN04/2306Z 
     TEMPO 2212/2218 33012KT 
     TEMPO 2218/2220 04012KT 
     BECMG 2220/2222 31008KT
       
LEAM 221230Z 22013KT 9999 FEW010 14/06 Q1007
TAF LEAM 220800Z 2209/2309 01005KT 9999 FEW020 TX14/2213Z TN06/2306Z 
     BECMG 2210/2213 21013KT 
     BECMG 2219/2221 35008KT
       
LEAO 221200Z 07003KT CAVOK 07/M07 Q1008
TAF LEAO 221100Z 2212/2221 03008KT CAVOK
       
LEAS 221230Z 10007KT 060V160 9999 FEW026 BKN045 08/04 Q1014 NOSIG
TAF LEAS 220800Z 2209/2309 21005KT 9999 FEW040 TX09/2214Z TN01/2306Z 
     BECMG 2210/2214 08010KT 
     BECMG 2218/2222 14005KT 
     TEMPO 2303/2309 22010KT
       
LEBA 221230Z 13001KT CAVOK 13/M03 Q1009
TAF LEBA 221100Z 2212/2221 09007KT CAVOK
       
LEBB 221230Z 04008KT 300V080 9999 SCT040 09/01 Q1015 NOSIG
TAF LEBB 221100Z 2212/2312 01009KT 9999 BKN040 TX09/2214Z TN00/2307Z
       
LEBG 221230Z 02015KT 350V060 9999 BKN028 02/M04 Q1010
TAF LEBG 221100Z 2212/2221 03017KT 9999 FEW020 BKN025 
     PROB30 
     TEMPO 2212/2218 04017G27KT
       
LEBL 221230Z 12007KT 090V160 9999 FEW045 09/01 Q1006 NOSIG
TAF LEBL 221100Z 2212/2312 13009KT 9999 FEW025 TX11/2212Z TN04/2308Z 
     BECMG 2222/2224 34008KT 
     BECMG 2310/2312 22010KT
       
LEBT 221200Z AUTO 13006KT 060V170 9999 // ////// 12/M04 Q1006
LEBZ 221200Z 28003KT CAVOK 12/M04 Q1011
TAF LEBZ 221100Z 2212/2312 27004KT CAVOK TX14/2215Z TN00/2307Z
       
LECH 221230Z AUTO 35006KT 260V050 9999 NCD 10/M06 Q1005
LECO 221230Z VRB04KT CAVOK 12/01 Q1012 NOSIG
TAF LECO 220800Z 2209/2309 VRB03KT CAVOK TX13/2215Z TN00/2306Z 
     BECMG 2209/2213 04010KT 
     BECMG 2218/2222 VRB03KT
       
LECV 221200Z 18007KT CAVOK 07/M09 Q1007
TAF LECV 221100Z 2212/2221 01010KT CAVOK 
     PROB40 
     TEMPO 2212/2219 02012G22KT
       
LEEC 221200Z 04004KT 340V090 CAVOK 13/M04 Q1010
TAF LEEC 221100Z 2212/2221 01006KT CAVOK
       
LEGA 221200Z 34006KT 270V360 9999 FEW050 10/M03 Q1007
TAF LEGA 221100Z 2212/2221 32008KT 9999 FEW040
       
LEGE 221230Z VRB02KT 9999 FEW045 09/M02 Q1005
TAF LEGE 221100Z 2212/2312 VRB04KT 9999 FEW030 TX11/2214Z TNM01/2306Z 
     TEMPO 2212/2218 07010KT 
     PROB30 
     TEMPO 2214/2218 4000 SHRA BKN020 FEW025TCU
       
LEGR 221230Z 29010KT 260V340 9999 FEW050 12/M04 Q1007
TAF LEGR 220800Z 2209/2309 VRB02KT 9999 FEW040 SCT065 TX14/2215Z TNM02/2307Z 
     BECMG 2211/2214 29011KT 
     BECMG 2218/2221 VRB03KT
       
LEGT 221200Z 15003KT CAVOK 09/M07 Q1008
TAF LEGT 221100Z 2212/2221 01010KT CAVOK 
     PROB40 
     TEMPO 2212/2219 02012G22KT
       
LEHC 221230Z 32009G21KT 250V020 CAVOK 11/M10 Q1003
TAF AMD LEHC 221230Z 2212/2309 33015KT 9999 SCT040 TX10/2215Z TNM03/2306Z 
     TEMPO 2212/2214 VRB04KT 
     TEMPO 2212/2214 32015G25KT 
     TEMPO 2214/2219 35020G35KT 
     BECMG 2218/2220 VRB04KT
       
LEIB 221230Z 21006KT 170V250 9999 FEW022TCU SCT029 BKN036 12/05 Q1006 NOSIG
TAF LEIB 220800Z 2209/2309 02008KT 9999 SCT020 TX12/2213Z TN03/2306Z 
     TEMPO 2209/2302 VRB04KT 
     PROB40 
     TEMPO 2209/2309 04010G25KT 4000 SHRA FEW020TCU BKN030 
     BECMG 2302/2304 02009KT
       
LEJR 221230Z 01005KT 340V060 9999 FEW025 15/M01 Q1009
TAF LEJR 221100Z 2212/2312 30009KT CAVOK TX17/2215Z TN01/2307Z 
     PROB40 
     TEMPO 2300/2310 3000 BR 
     PROB30 
     TEMPO 2304/2309 0500 BCFG VV001
       
LELC 221200Z 16004KT 110V230 9999 SCT040 14/05 Q1006 NOSIG
TAF LELC 221100Z 2212/2312 22010KT 9999 FEW025 SCT045 TX15/2213Z TN04/2306Z 
     BECMG 2218/2221 32010KT 
     BECMG 2309/2312 09008KT
       
LELL 221230Z 13004KT 9999 FEW040 09/M00 Q1005
TAF LELL 220800Z 2209/2309 VRB04KT 9999 FEW020 TX11/2213Z TN01/2306Z 
     TEMPO 2212/2218 15009KT 
     PROB30 
     TEMPO 2212/2218 4000 SHRA FEW020TCU BKN030
       
LELN 221200Z 17003KT CAVOK 06/M04 Q1010
TAF LELN 221100Z 2212/2221 VRB05KT CAVOK 
     TEMPO 2212/2221 09007KT
       
LELO 221200Z 31008KT 260V020 9999 FEW040 07/M06 Q1012
TAF LELO 221100Z 2212/2221 29013KT 9999 SCT040
       
LEMD 221230Z 09004KT CAVOK 09/M06 Q1008 NOSIG
TAF LEMD 221100Z 2212/2318 02012KT CAVOK TX11/2215Z TNM05/2307Z 
     PROB40 
     TEMPO 2212/2219 02012G22KT 
     BECMG 2223/2301 03008KT 
     TEMPO 2313/2318 VRB05KT
       
LEMG 221230Z 14007KT 090V170 9999 FEW035 15/07 Q1008 NOSIG
TAF LEMG 221100Z 2212/2312 14008KT 9999 SCT025 TX16/2214Z TN07/2306Z 
     BECMG 2215/2219 29009KT 
     BECMG 2309/2311 12008KT
       
LEMH 221230Z 36018G29KT 330V030 9999 BKN032 09/01 Q1005
TAF LEMH 220800Z 2209/2309 36015KT 9999 SCT020 TX12/2213Z TN04/2306Z 
     TEMPO 2209/2215 01020G35KT 
     BECMG 2218/2220 36009KT 
     PROB40 
     TEMPO 2302/2308 4000 SHRA FEW020TCU BKN030
       
LEMO 221200Z 03004KT 320V080 CAVOK 12/M02 Q1010 NOSIG
TAF LEMO 221100Z 2212/2221 02006KT CAVOK
       
LEPA 221230Z 06005KT 9000 -RA FEW009 FEW026TCU BKN033 07/05 Q1006 TEMPO 4000 SHRA
TAF LEPA 221100Z 2212/2312 VRB04KT 9999 SCT025 TX11/2212Z TN01/2307Z 
     TEMPO 2212/2216 24010KT 
     PROB40 
     TEMPO 2212/2223 09012KT 4000 SHRA BKN025 FEW030TCU 
     BECMG 2310/2312 05010KT
       
LEPP 221230Z 34017G27KT 9999 FEW033 05/M05 Q1011
TAF LEPP 220800Z 2209/2309 34015KT 9999 FEW030 TX05/2214Z TNM04/2308Z 
     PROB40 
     TEMPO 2209/2218 34020G30KT 
     BECMG 2220/2224 32005KT
       
LERI 221200Z VRB02KT 9999 FEW040 14/00 Q1006 NOSIG
TAF LERI 221100Z 2212/2221 27006KT 9999 FEW025 SCT040 
     PROB30 
     TEMPO 2215/2218 31010G20KT
       
LERS 221230Z 26010KT 200V300 9999 FEW040 11/M04 Q1005
TAF LERS 220800Z 2209/2309 27010KT 9999 FEW020 TX13/2213Z TN01/2307Z 
     BECMG 2212/2214 10008KT 
     BECMG 2218/2220 02004KT 
     BECMG 2302/2304 28010KT 
     PROB30 
     TEMPO 2223/2303 4000 SHRA FEW020TCU BKN030
       
LERT 221200Z 06005KT 360V110 CAVOK 15/M00 Q1010 NOSIG
TAF LERT 221100Z 2212/2221 05010KT CAVOK 
     BECMG 2212/2214 23008KT
       
LESA 221230Z 09009G19KT 030V120 9999 FEW024 06/M04 Q1011
TAF LESA 221100Z 2212/2312 06012KT CAVOK TX07/2215Z TNM07/2307Z 
     TEMPO 2219/2308 08007KT
       
LESO 221230Z 02004KT 310V070 9000 3500S SCT022 06/02 Q1015
TAF LESO 221100Z 2212/2312 36009KT 8000 SCT020 TX08/2214Z TN00/2306Z
       
LEST 221230Z VRB01KT 9999 FEW030 10/01 Q1012 NOSIG
TAF LEST 221100Z 2212/2312 05008KT CAVOK TX11/2214Z TN00/2307Z
       
LESU 221230Z 30007KT 230V010 9999 FEW060 07/M12 Q1002
TAF LESU 220800Z 2209/2309 VRB05KT 9999 SCT040 TX08/2215Z TNM06/2306Z 
     BECMG 2209/2210 34010KT 
     TEMPO 2210/2218 35010G38KT 
     BECMG 2218/2220 VRB04KT
       
LETL 221230Z AUTO 35020KT 9999 NCD 05/M07 Q1004
LETO 221200Z 07004KT 030V100 CAVOK 08/M06 Q1008 NOSIG
TAF LETO 221100Z 2212/2312 02012KT CAVOK TX11/2215Z TNM05/2307Z 
     PROB40 
     TEMPO 2212/2219 02012G22KT 
     BECMG 2223/2301 03008KT
       
LEVC 221230Z 07004KT 020V170 CAVOK 11/M05 Q1005 NOSIG
TAF LEVC 221100Z 2212/2312 30006KT 9999 FEW025 TX15/2213Z TNM01/2306Z 
     BECMG 2212/2214 10009KT 
     BECMG 2217/2219 30008KT
       
LEVD 221230Z 04014KT 9999 FEW040 05/M04 Q1010
TAF LEVD 221100Z 2212/2312 03012KT CAVOK TX06/2215Z TNM06/2307Z 
     BECMG 2301/2302 05007KT
       
LEVS 221230Z VRB04KT CAVOK 09/M08 Q1008
TAF LEVS 221100Z 2212/2221 01008KT CAVOK 
     PROB40 
     TEMPO 2212/2219 02012G22KT
       
LEVT 221230Z 36012KT 330V070 9999 FEW038 05/M05 Q1012
TAF LEVT 221100Z 2212/2312 36012KT 9999 BKN030 TX05/2214Z TNM02/2307Z 
     BECMG 2218/2222 VRB05KT
       
LEVX 221230Z VRB03KT CAVOK 14/05 Q1011 NOSIG
TAF LEVX 221100Z 2212/2312 VRB05KT CAVOK TX13/2214Z TN01/2308Z 
     BECMG 2212/2214 29010KT 
     BECMG 2218/2222 VRB03KT
       
LEXJ 221230Z 06007KT 020V100 9999 SCT032 10/01 Q1015
TAF LEXJ 220800Z 2209/2309 VRB03KT 9999 SCT040 TX09/2214Z TN02/2307Z 
     BECMG 2209/2213 03010KT 
     BECMG 2218/2222 VRB03KT
       
LEZG 221230Z 33025G36KT CAVOK 09/M06 Q1007
TAF LEZG 221100Z 2212/2312 31018KT 9999 FEW040 TX10/2213Z TN00/2306Z 
     TEMPO 2212/2219 31025G38KT 
     PROB40 
     TEMPO 2212/2219 31028G43KT 
     TEMPO 2219/2224 33015G25KT 
     BECMG 2222/2224 30012KT
       
LEZL 221230Z 07001KT CAVOK 13/M05 Q1009 NOSIG
TAF LEZL 220800Z 2209/2309 05005KT CAVOK TX17/2216Z TN03/2307Z
       
LEJR 221230Z 01005KT 340V060 9999 FEW025 15/M01 Q1009
TAF LEJR 221100Z 2212/2312 30009KT CAVOK TX17/2215Z TN01/2307Z 
     PROB40 
     TEMPO 2300/2310 3000 BR 
     PROB30 
     TEMPO 2304/2309 0500 BCFG VV001
       
GCGM 221230Z 10009KT 060V140 9999 FEW025 BKN060 18/11 Q1011 RMK R09/14005KT 060V210 ARP/11009KT 080V160
GCLA 221230Z 11004KT 080V140 9999 FEW035 SCT060 19/11 Q1011
TAF GCLA 220800Z 2209/2309 27010KT 9999 BKN035 TX19/2214Z TN15/2306Z 
     BECMG 2209/2211 12005KT 
     BECMG 2219/2221 24010KT 
     TEMPO 2304/2309 RA
       
GCRR 221230Z 14005KT 110V190 9999 FEW030 BKN040 18/12 Q1011
TAF GCRR 220800Z 2209/2309 36010KT 9999 SCT035 TX21/2214Z TN13/2306Z 
     TEMPO 2211/2216 15005KT 
     BECMG 2216/2218 07005KT
       
LELN 221200Z 17003KT CAVOK 06/M04 Q1010
TAF LELN 221100Z 2212/2221 VRB05KT CAVOK 
     TEMPO 2212/2221 09007KT
       
LEMG 221230Z 14007KT 090V170 9999 FEW035 15/07 Q1008 NOSIG
TAF LEMG 221100Z 2212/2312 14008KT 9999 SCT025 TX16/2214Z TN07/2306Z 
     BECMG 2215/2219 29009KT 
     BECMG 2309/2311 12008KT
       
GEML 221230Z 30003KT 9999 SCT040 14/06 Q1008
TAF GEML 220800Z 2209/2309 12006KT 9999 FEW025 SCT040 TX15/2214Z TN08/2306Z 
     PROB30 
     TEMPO 2209/2210 4000 -RA 
     BECMG 2218/2221 26010KT
       
LEMH 221230Z 36018G29KT 330V030 9999 BKN032 09/01 Q1005
TAF LEMH 220800Z 2209/2309 36015KT 9999 SCT020 TX12/2213Z TN04/2306Z 
     TEMPO 2209/2215 01020G35KT 
     BECMG 2218/2220 36009KT 
     PROB40 
     TEMPO 2302/2308 4000 SHRA FEW020TCU BKN030
       
LEAB 221200Z 32013KT CAVOK 06/M07 Q1006 NOSIG
TAF LEAB 221100Z 2212/2221 31014KT CAVOK
       
LEAL 221230Z 30010G21KT 240V340 9999 FEW025 14/M04 Q1005 NOSIG
TAF LEAL 221100Z 2212/2312 27010KT 9999 FEW025 TX16/2213Z TN04/2306Z 
     TEMPO 2212/2218 33012KT 
     TEMPO 2218/2220 04012KT 
     BECMG 2220/2222 31008KT
       
LEAM 221230Z 22013KT 9999 FEW010 14/06 Q1007
TAF LEAM 220800Z 2209/2309 01005KT 9999 FEW020 TX14/2213Z TN06/2306Z 
     BECMG 2210/2213 21013KT 
     BECMG 2219/2221 35008KT
       
LEAO 221200Z 07003KT CAVOK 07/M07 Q1008
TAF LEAO 221100Z 2212/2221 03008KT CAVOK
       
LEAS 221230Z 10007KT 060V160 9999 FEW026 BKN045 08/04 Q1014 NOSIG
TAF LEAS 220800Z 2209/2309 21005KT 9999 FEW040 TX09/2214Z TN01/2306Z 
     BECMG 2210/2214 08010KT 
     BECMG 2218/2222 14005KT 
     TEMPO 2303/2309 22010KT
       
LEBA 221230Z 13001KT CAVOK 13/M03 Q1009
TAF LEBA 221100Z 2212/2221 09007KT CAVOK
       
LEBB 221230Z 04008KT 300V080 9999 SCT040 09/01 Q1015 NOSIG
TAF LEBB 221100Z 2212/2312 01009KT 9999 BKN040 TX09/2214Z TN00/2307Z
       
LEBG 221230Z 02015KT 350V060 9999 BKN028 02/M04 Q1010
TAF LEBG 221100Z 2212/2221 03017KT 9999 FEW020 BKN025 
     PROB30 
     TEMPO 2212/2218 04017G27KT
       
LEBL 221230Z 12007KT 090V160 9999 FEW045 09/01 Q1006 NOSIG
TAF LEBL 221100Z 2212/2312 13009KT 9999 FEW025 TX11/2212Z TN04/2308Z 
     BECMG 2222/2224 34008KT 
     BECMG 2310/2312 22010KT
       
LEBT 221200Z AUTO 13006KT 060V170 9999 // ////// 12/M04 Q1006
LEBZ 221200Z 28003KT CAVOK 12/M04 Q1011
TAF LEBZ 221100Z 2212/2312 27004KT CAVOK TX14/2215Z TN00/2307Z
       
LECH 221230Z AUTO 35006KT 260V050 9999 NCD 10/M06 Q1005
LECO 221230Z VRB04KT CAVOK 12/01 Q1012 NOSIG
TAF LECO 220800Z 2209/2309 VRB03KT CAVOK TX13/2215Z TN00/2306Z 
     BECMG 2209/2213 04010KT 
     BECMG 2218/2222 VRB03KT
       
LECV 221200Z 18007KT CAVOK 07/M09 Q1007
TAF LECV 221100Z 2212/2221 01010KT CAVOK 
     PROB40 
     TEMPO 2212/2219 02012G22KT
       
LEEC 221200Z 04004KT 340V090 CAVOK 13/M04 Q1010
TAF LEEC 221100Z 2212/2221 01006KT CAVOK
       
LEGA 221200Z 34006KT 270V360 9999 FEW050 10/M03 Q1007
TAF LEGA 221100Z 2212/2221 32008KT 9999 FEW040
       
LEGE 221230Z VRB02KT 9999 FEW045 09/M02 Q1005
TAF LEGE 221100Z 2212/2312 VRB04KT 9999 FEW030 TX11/2214Z TNM01/2306Z 
     TEMPO 2212/2218 07010KT 
     PROB30 
     TEMPO 2214/2218 4000 SHRA BKN020 FEW025TCU
       
LEGR 221230Z 29010KT 260V340 9999 FEW050 12/M04 Q1007
TAF LEGR 220800Z 2209/2309 VRB02KT 9999 FEW040 SCT065 TX14/2215Z TNM02/2307Z 
     BECMG 2211/2214 29011KT 
     BECMG 2218/2221 VRB03KT
       
LEGT 221200Z 15003KT CAVOK 09/M07 Q1008
TAF LEGT 221100Z 2212/2221 01010KT CAVOK 
     PROB40 
     TEMPO 2212/2219 02012G22KT
       
LEHC 221230Z 32009G21KT 250V020 CAVOK 11/M10 Q1003
TAF AMD LEHC 221230Z 2212/2309 33015KT 9999 SCT040 TX10/2215Z TNM03/2306Z 
     TEMPO 2212/2214 VRB04KT 
     TEMPO 2212/2214 32015G25KT 
     TEMPO 2214/2219 35020G35KT 
     BECMG 2218/2220 VRB04KT
       
LEIB 221230Z 21006KT 170V250 9999 FEW022TCU SCT029 BKN036 12/05 Q1006 NOSIG
TAF LEIB 220800Z 2209/2309 02008KT 9999 SCT020 TX12/2213Z TN03/2306Z 
     TEMPO 2209/2302 VRB04KT 
     PROB40 
     TEMPO 2209/2309 04010G25KT 4000 SHRA FEW020TCU BKN030 
     BECMG 2302/2304 02009KT
       
LEJR 221230Z 01005KT 340V060 9999 FEW025 15/M01 Q1009
TAF LEJR 221100Z 2212/2312 30009KT CAVOK TX17/2215Z TN01/2307Z 
     PROB40 
     TEMPO 2300/2310 3000 BR 
     PROB30 
     TEMPO 2304/2309 0500 BCFG VV001
       
LELC 221200Z 16004KT 110V230 9999 SCT040 14/05 Q1006 NOSIG
TAF LELC 221100Z 2212/2312 22010KT 9999 FEW025 SCT045 TX15/2213Z TN04/2306Z 
     BECMG 2218/2221 32010KT 
     BECMG 2309/2312 09008KT
       
LELL 221230Z 13004KT 9999 FEW040 09/M00 Q1005
TAF LELL 220800Z 2209/2309 VRB04KT 9999 FEW020 TX11/2213Z TN01/2306Z 
     TEMPO 2212/2218 15009KT 
     PROB30 
     TEMPO 2212/2218 4000 SHRA FEW020TCU BKN030
       
LELN 221200Z 17003KT CAVOK 06/M04 Q1010
TAF LELN 221100Z 2212/2221 VRB05KT CAVOK 
     TEMPO 2212/2221 09007KT
       
LELO 221200Z 31008KT 260V020 9999 FEW040 07/M06 Q1012
TAF LELO 221100Z 2212/2221 29013KT 9999 SCT040
       
LEMD 221230Z 09004KT CAVOK 09/M06 Q1008 NOSIG
TAF LEMD 221100Z 2212/2318 02012KT CAVOK TX11/2215Z TNM05/2307Z 
     PROB40 
     TEMPO 2212/2219 02012G22KT 
     BECMG 2223/2301 03008KT 
     TEMPO 2313/2318 VRB05KT
       
LEMG 221230Z 14007KT 090V170 9999 FEW035 15/07 Q1008 NOSIG
TAF LEMG 221100Z 2212/2312 14008KT 9999 SCT025 TX16/2214Z TN07/2306Z 
     BECMG 2215/2219 29009KT 
     BECMG 2309/2311 12008KT
       
LEMH 221230Z 36018G29KT 330V030 9999 BKN032 09/01 Q1005
TAF LEMH 220800Z 2209/2309 36015KT 9999 SCT020 TX12/2213Z TN04/2306Z 
     TEMPO 2209/2215 01020G35KT 
     BECMG 2218/2220 36009KT 
     PROB40 
     TEMPO 2302/2308 4000 SHRA FEW020TCU BKN030
       
LEMO 221200Z 03004KT 320V080 CAVOK 12/M02 Q1010 NOSIG
TAF LEMO 221100Z 2212/2221 02006KT CAVOK
       
LEPA 221230Z 06005KT 9000 -RA FEW009 FEW026TCU BKN033 07/05 Q1006 TEMPO 4000 SHRA
TAF LEPA 221100Z 2212/2312 VRB04KT 9999 SCT025 TX11/2212Z TN01/2307Z 
     TEMPO 2212/2216 24010KT 
     PROB40 
     TEMPO 2212/2223 09012KT 4000 SHRA BKN025 FEW030TCU 
     BECMG 2310/2312 05010KT
       
LEPP 221230Z 34017G27KT 9999 FEW033 05/M05 Q1011
TAF LEPP 220800Z 2209/2309 34015KT 9999 FEW030 TX05/2214Z TNM04/2308Z 
     PROB40 
     TEMPO 2209/2218 34020G30KT 
     BECMG 2220/2224 32005KT
       
LERI 221200Z VRB02KT 9999 FEW040 14/00 Q1006 NOSIG
TAF LERI 221100Z 2212/2221 27006KT 9999 FEW025 SCT040 
     PROB30 
     TEMPO 2215/2218 31010G20KT
       
LERS 221230Z 26010KT 200V300 9999 FEW040 11/M04 Q1005
TAF LERS 220800Z 2209/2309 27010KT 9999 FEW020 TX13/2213Z TN01/2307Z 
     BECMG 2212/2214 10008KT 
     BECMG 2218/2220 02004KT 
     BECMG 2302/2304 28010KT 
     PROB30 
     TEMPO 2223/2303 4000 SHRA FEW020TCU BKN030
       
LERT 221200Z 06005KT 360V110 CAVOK 15/M00 Q1010 NOSIG
TAF LERT 221100Z 2212/2221 05010KT CAVOK 
     BECMG 2212/2214 23008KT
       
LESA 221230Z 09009G19KT 030V120 9999 FEW024 06/M04 Q1011
TAF LESA 221100Z 2212/2312 06012KT CAVOK TX07/2215Z TNM07/2307Z 
     TEMPO 2219/2308 08007KT
       
LESO 221230Z 02004KT 310V070 9000 3500S SCT022 06/02 Q1015
TAF LESO 221100Z 2212/2312 36009KT 8000 SCT020 TX08/2214Z TN00/2306Z
       
LEST 221230Z VRB01KT 9999 FEW030 10/01 Q1012 NOSIG
TAF LEST 221100Z 2212/2312 05008KT CAVOK TX11/2214Z TN00/2307Z
       
LESU 221230Z 30007KT 230V010 9999 FEW060 07/M12 Q1002
TAF LESU 220800Z 2209/2309 VRB05KT 9999 SCT040 TX08/2215Z TNM06/2306Z 
     BECMG 2209/2210 34010KT 
     TEMPO 2210/2218 35010G38KT 
     BECMG 2218/2220 VRB04KT
       
LETL 221230Z AUTO 35020KT 9999 NCD 05/M07 Q1004
LETO 221200Z 07004KT 030V100 CAVOK 08/M06 Q1008 NOSIG
TAF LETO 221100Z 2212/2312 02012KT CAVOK TX11/2215Z TNM05/2307Z 
     PROB40 
     TEMPO 2212/2219 02012G22KT 
     BECMG 2223/2301 03008KT
       
LEVC 221230Z 07004KT 020V170 CAVOK 11/M05 Q1005 NOSIG
TAF LEVC 221100Z 2212/2312 30006KT 9999 FEW025 TX15/2213Z TNM01/2306Z 
     BECMG 2212/2214 10009KT 
     BECMG 2217/2219 30008KT
       
LEVD 221230Z 04014KT 9999 FEW040 05/M04 Q1010
TAF LEVD 221100Z 2212/2312 03012KT CAVOK TX06/2215Z TNM06/2307Z 
     BECMG 2301/2302 05007KT
       
LEVS 221230Z VRB04KT CAVOK 09/M08 Q1008
TAF LEVS 221100Z 2212/2221 01008KT CAVOK 
     PROB40 
     TEMPO 2212/2219 02012G22KT
       
LEVT 221230Z 36012KT 330V070 9999 FEW038 05/M05 Q1012
TAF LEVT 221100Z 2212/2312 36012KT 9999 BKN030 TX05/2214Z TNM02/2307Z 
     BECMG 2218/2222 VRB05KT
       
LEVX 221230Z VRB03KT CAVOK 14/05 Q1011 NOSIG
TAF LEVX 221100Z 2212/2312 VRB05KT CAVOK TX13/2214Z TN01/2308Z 
     BECMG 2212/2214 29010KT 
     BECMG 2218/2222 VRB03KT
       
LEXJ 221230Z 06007KT 020V100 9999 SCT032 10/01 Q1015
TAF LEXJ 220800Z 2209/2309 VRB03KT 9999 SCT040 TX09/2214Z TN02/2307Z 
     BECMG 2209/2213 03010KT 
     BECMG 2218/2222 VRB03KT
       
LEZG 221230Z 33025G36KT CAVOK 09/M06 Q1007
TAF LEZG 221100Z 2212/2312 31018KT 9999 FEW040 TX10/2213Z TN00/2306Z 
     TEMPO 2212/2219 31025G38KT 
     PROB40 
     TEMPO 2212/2219 31028G43KT 
     TEMPO 2219/2224 33015G25KT 
     BECMG 2222/2224 30012KT
       
LEZL 221230Z 07001KT CAVOK 13/M05 Q1009 NOSIG
TAF LEZL 220800Z 2209/2309 05005KT CAVOK TX17/2216Z TN03/2307Z
       
LEMO 221200Z 03004KT 320V080 CAVOK 12/M02 Q1010 NOSIG
TAF LEMO 221100Z 2212/2221 02006KT CAVOK
       
LEPP 221230Z 34017G27KT 9999 FEW033 05/M05 Q1011
TAF LEPP 220800Z 2209/2309 34015KT 9999 FEW030 TX05/2214Z TNM04/2308Z 
     PROB40 
     TEMPO 2209/2218 34020G30KT 
     BECMG 2220/2224 32005KT
       
LERS 221230Z 26010KT 200V300 9999 FEW040 11/M04 Q1005
TAF LERS 220800Z 2209/2309 27010KT 9999 FEW020 TX13/2213Z TN01/2307Z 
     BECMG 2212/2214 10008KT 
     BECMG 2218/2220 02004KT 
     BECMG 2302/2304 28010KT 
     PROB30 
     TEMPO 2223/2303 4000 SHRA FEW020TCU BKN030
       
LERT 221200Z 06005KT 360V110 CAVOK 15/M00 Q1010 NOSIG
TAF LERT 221100Z 2212/2221 05010KT CAVOK 
     BECMG 2212/2214 23008KT
       
LESA 221230Z 09009G19KT 030V120 9999 FEW024 06/M04 Q1011
TAF LESA 221100Z 2212/2312 06012KT CAVOK TX07/2215Z TNM07/2307Z 
     TEMPO 2219/2308 08007KT
       
LESO 221230Z 02004KT 310V070 9000 3500S SCT022 06/02 Q1015
TAF LESO 221100Z 2212/2312 36009KT 8000 SCT020 TX08/2214Z TN00/2306Z
       
LEXJ 221230Z 06007KT 020V100 9999 SCT032 10/01 Q1015
TAF LEXJ 220800Z 2209/2309 VRB03KT 9999 SCT040 TX09/2214Z TN02/2307Z 
     BECMG 2209/2213 03010KT 
     BECMG 2218/2222 VRB03KT
       
LEST 221230Z VRB01KT 9999 FEW030 10/01 Q1012 NOSIG
TAF LEST 221100Z 2212/2312 05008KT CAVOK TX11/2214Z TN00/2307Z
       
LESU 221230Z 30007KT 230V010 9999 FEW060 07/M12 Q1002
TAF LESU 220800Z 2209/2309 VRB05KT 9999 SCT040 TX08/2215Z TNM06/2306Z 
     BECMG 2209/2210 34010KT 
     TEMPO 2210/2218 35010G38KT 
     BECMG 2218/2220 VRB04KT
       
LEZL 221230Z 07001KT CAVOK 13/M05 Q1009 NOSIG
TAF LEZL 220800Z 2209/2309 05005KT CAVOK TX17/2216Z TN03/2307Z
       
LEBZ 221200Z 28003KT CAVOK 12/M04 Q1011
TAF LEBZ 221100Z 2212/2312 27004KT CAVOK TX14/2215Z TN00/2307Z
       
GCXO 221230Z 14005KT 100V170 9999 FEW014 SCT031 BKN039 13/09 Q1012 NOSIG
TAF GCXO 220800Z 2209/2309 13005KT 9999 BKN025 TX15/2214Z TN10/2306Z 
     PROB30 
     TEMPO 2209/2211 31011KT 
     BECMG 2223/2301 20010KT 
     PROB40 
     TEMPO 2218/2303 4900 BCFG BKN008 
     PROB40 
     TEMPO 2209/2221 RA
       
GCTS 221230Z 16004KT 120V190 9999 FEW035 OVC046 18/08 Q1011 NOSIG
TAF GCTS 220800Z 2209/2309 34005KT 9999 BKN030 TX21/2214Z TN12/2306Z 
     BECMG 2210/2212 13010KT 
     BECMG 2220/2222 32007KT 
     PROB40 
     TEMPO 2214/2217 RA 
     TEMPO 2306/2309 RA
       
LETO 221200Z 07004KT 030V100 CAVOK 08/M06 Q1008 NOSIG
TAF LETO 221100Z 2212/2312 02012KT CAVOK TX11/2215Z TNM05/2307Z 
     PROB40 
     TEMPO 2212/2219 02012G22KT 
     BECMG 2223/2301 03008KT
       
LEVC 221230Z 07004KT 020V170 CAVOK 11/M05 Q1005 NOSIG
TAF LEVC 221100Z 2212/2312 30006KT 9999 FEW025 TX15/2213Z TNM01/2306Z 
     BECMG 2212/2214 10009KT 
     BECMG 2217/2219 30008KT
       
LEVD 221230Z 04014KT 9999 FEW040 05/M04 Q1010
TAF LEVD 221100Z 2212/2312 03012KT CAVOK TX06/2215Z TNM06/2307Z 
     BECMG 2301/2302 05007KT
       
LEVX 221230Z VRB03KT CAVOK 14/05 Q1011 NOSIG
TAF LEVX 221100Z 2212/2312 VRB05KT CAVOK TX13/2214Z TN01/2308Z 
     BECMG 2212/2214 29010KT 
     BECMG 2218/2222 VRB03KT
       
LEVT 221230Z 36012KT 330V070 9999 FEW038 05/M05 Q1012
TAF LEVT 221100Z 2212/2312 36012KT 9999 BKN030 TX05/2214Z TNM02/2307Z 
     BECMG 2218/2222 VRB05KT
       
LEZG 221230Z 33025G36KT CAVOK 09/M06 Q1007
TAF LEZG 221100Z 2212/2312 31018KT 9999 FEW040 TX10/2213Z TN00/2306Z 
     TEMPO 2212/2219 31025G38KT 
     PROB40 
     TEMPO 2212/2219 31028G43KT 
     TEMPO 2219/2224 33015G25KT 
     BECMG 2222/2224 30012KT